Regional Weather Roundup
Issued by NWS

Home | Current Version | Previous Version | Graphics & Text | Print | Product List | Glossary On
Versions: 1 2 3 4 5 6 7 8 9 10 11 12 13 14 15 16 17 18 19 20 21 22 23 24 25 26 27 28
000
ASUS45 KTFX 220010
RWRMT
MONTANA REGIONAL WEATHER ROUNDUP
NATIONAL WEATHER SERVICE GREAT FALLS MT
600 PM MDT SAT OCT 21 2017

NOTE: "FAIR" INDICATES FEW OR NO CLOUDS BELOW 12000 FEET WITH NO
SIGNIFICANT WEATHER AND/OR OBSTRUCTIONS TO VISIBILITY.

MTZ001>007-043-220100-
WEST OF THE DIVIDE

CITY           SKY/WX    TMP DP  RH WIND       PRES   REMARKS
KALISPELL      CLOUDY    45  29  53 S8        29.92F
MISSOULA       CLOUDY    46  28  49 CALM      29.97F
BUTTE          CLOUDY    40  24  53 NW7       30.00S
MULLAN PASS    SNOW      28  26  92 MISG      29.88F VSB 1/4
ANACONDA         N/A     39  25  56 S17G25    29.98S WCI  30
DEER LODGE       N/A     43  25  49 S6        29.98S
EUREKA           N/A     45  30  57 MISG      29.91S
HAMILTON         N/A     43  28  56 S15G22    30.00S
LIBBY            N/A     45  34  65 SW5       29.90F
$$

MTZ008-052>055-220100-
SOUTHWEST MONTANA

CITY           SKY/WX    TMP DP  RH WIND       PRES   REMARKS
BOZEMAN        CLOUDY    46  21  37 SW17      29.98R
DILLON         CLOUDY    41  20  43 SW14G22   30.03S
W YELLOWSTONE  LGT SNOW  30  25  80 SW18G26   30.12R WCI  18
ENNIS          CLOUDY    39  19  45 S25G36    30.09R WCI  28
THREE FORKS      N/A     47  19  33 S9        29.97S
$$

MTZ009-010-012-014-046-048-049-054-220100-
EAST SLOPES AND CENTRAL MONTANA

CITY           SKY/WX    TMP DP  RH WIND       PRES   REMARKS
CUT BANK       PTCLDY    41  22  46 W30G39    29.82F
GREAT FALLS    CLEAR     44  19  36 SW21G32   29.87S
MALMSTROM AFB  CLEAR     46  20  36 W20G25    29.88S
HELENA         CLOUDY    48  23  37 W14       29.95R
BOWMANS CRNR   MOCLDY    42  20  42 SW15      29.87F
CHOTEAU          N/A     45  19  36 SW16      29.86S
FAIRFIELD        N/A     44  19  38 SW16      29.85F
POWER            N/A     41  19  41 SW13      29.85F
RAYNESFORD       N/A     45  18  33 W21G31    29.87F
ULM              N/A     44  21  40 SW9       29.89S
$$

MTZ011-013-016-021-045-047-050-051-220100-
NORTH CENTRAL MONTANA

CITY           SKY/WX    TMP DP  RH WIND       PRES   REMARKS
HAVRE          CLEAR     49  22  34 W15       29.82S
LEWISTOWN      CLEAR     45  16  31 W16G26    29.89R
N BAR RANCH      N/A     43  12  28 W14       29.91R
CHINOOK          N/A     50  21  32 W9        29.82R
DENTON           N/A     47  17  31 W14       29.85R
GEYSER           N/A     45  17  32 W17G25    29.87S
GRASS RANGE      N/A     46  16  30 W13       29.85R
JUDITH GAP       N/A     43  14  31 W18G24    29.91R
WINIFRED         N/A     46  17  31 W16G23    29.87R
$$

MTZ017>020-022>027-061-062-220100-
NORTHEAST MONTANA

CITY           SKY/WX    TMP DP  RH WIND       PRES   REMARKS
GLASGOW        CLEAR     52  25  35 W16       29.79R
JORDAN           N/A     51  20  29 W13       29.84R
SIDNEY         PTCLDY    50  26  39 W8        29.78R
WOLF POINT     CLEAR     54  24  31 W14G24    29.78R
MALTA          CLEAR     52  23  32 W10G17    29.81R
PLENTYWOOD       N/A     46  28  49 NW13      29.73R
POPLAR           N/A     52  25  35 W10       29.77R
SCOBEY           N/A     48  23  37 W12       29.75R
$$

MTZ028>42-056>058-220100-
SOUTHCENTRAL AND SOUTHEAST MONTANA

CITY           SKY/WX    TMP DP  RH WIND       PRES   REMARKS
BAKER          CLEAR     50  23  34 NW22G30   29.85R
BILLINGS       PTCLDY    50  17  27 W15       29.91S
LIVINGSTON     PTCLDY    45  18  34 SW38G49   29.92F
MILES CITY     CLEAR     52  24  33 NW12      29.87R
BIG TIMBER     CLEAR     45  18  33 W22       29.94S
FORSYTH          N/A     54  19  26 W10       29.88R
HARLOWTON        N/A     46  14  27 W26G36    29.89S
LAUREL           N/A     50  16  25 W13       29.93R
$$

REGIONAL REPORTS...DAKOTAS

CITY           SKY/WX    TMP DP  RH WIND       PRES   REMARKS
WILLISTON      CLEAR     49  31  49 NW14      29.75R
MINOT          CLOUDY    49  37  63 W23G31    29.65R
DICKINSON      PTCLDY    49  27  42 NW18      29.76R
BEACH            N/A     48  21  34 NW21G26   29.84R
CROSBY         CLOUDY    48  34  57 NW22G33   29.70R
TIOGA          CLOUDY    46  37  71 W21G37    29.72R
WATFORD CITY     N/A     48  28  46 NW12      29.75R
BISMARCK       CLOUDY    51  36  56 NW17      29.75R
GRAND FORKS    MOCLDY    55  43  63 SW16      29.58R
FARGO          CLOUDY    54  44  69 W16G23    29.64R
BUFFALO SD       N/A     50  22  33 NW15      29.81R
RAPID CITY     CLEAR     49  18  29 NW12      29.92R
$$

REGIONAL REPORTS...WYOMING/IDAHO/WASHINGTON

CITY           SKY/WX    TMP DP  RH WIND       PRES   REMARKS
GILLETTE       PTCLDY    44  14  29 W8        29.95R
SHERIDAN       CLEAR     48  15  26 W13       29.93R
BUFFALO WY     CLEAR     47   7  19 NE3       29.96R
CODY           CLEAR     43  15  32 SW18G36   30.01R
YELLOWSTONE LA   N/A     25  20  81 VRB5      30.14R
IDAHO FALLS    CLOUDY    44  23  43 S13       30.19R
SALMON         CLOUDY    44  27  51 E8        30.08R
BOISE          LGT RAIN  45  40  82 E13       30.18R
SPOKANE        LGT RAIN  41  38  89 S15G23    29.89F
$$

REGIONAL REPORTS...ALBERTA

CITY           SKY/WX    TMP DP  RH WIND       PRES   REMARKS
EDMONTON       CLEAR     43  28  56 SE3       29.64F
CALGARY        PTCLDY    45  16  31 W8        29.67S
LETHBRIDGE     PTCLDY    43  23  45 W13G20    29.76F
MEDICINE HAT   PTCLDY    48  27  43 SW15G21   29.74S
$$

REGIONAL REPORTS...SASKATCHEWAN

CITY           SKY/WX    TMP DP  RH WIND       PRES   REMARKS
SWIFT CURRENT  CLEAR     43  28  56 W10       29.72R
REGINA         MOCLDY    45  39  81 W14       29.64R
SASKATOON      PTCLDY    41  36  81 W9        29.66R
$$




USA.gov is the U.S. government's official web portal to all federal, state and local government web resources and services.